When you browse on this site, cookies collect data to enhance your experience and personalize the content and advertising you see.
Visit our Privacy Policy to learn more. By continuing to use the site, you agree to this use of cookies and data.
  • In Czech Republic
  • List of Countries
  • For 7 days
  • Water Temperature
  • Satellite Maps
  • Weather Map
  • Weather Widgets
  • user-avatar
    Login

    Hourly Weather Sudily

    Today, 16 July, Tuesday

    Time Temperature Precipitation Wind Pressure Humidity
    00:00 +14°C° 0.1 mm 1 mps 741 mmHg 93%
    01:00 +14°C° 0.1 mm 1 mps 741 mmHg 94%
    02:00 +12°C° 0 mm 0 mps 741 mmHg 95%
    03:00 +13°C° 0 mm 0 mps 741 mmHg 95%
    04:00 +14°C° 0 mm 1 mps 741 mmHg 95%
    05:00 +14°C° 0 mm 1 mps 740 mmHg 94%
    06:00 +15°C° 0.3 mm 1 mps 740 mmHg 93%
    07:00 +16°C° 0.3 mm 1 mps 740 mmHg 91%
    08:00 +16°C° 0.3 mm 1 mps 740 mmHg 89%
    09:00 +18°C° 0.7 mm 1 mps 740 mmHg 84%
    10:00 +20°C° 0.7 mm 1 mps 740 mmHg 80%
    11:00 +21°C° 0.7 mm 1 mps 740 mmHg 76%
    12:00 +22°C° 0.3 mm 1 mps 740 mmHg 70%
    13:00 +22°C° 0.3 mm 1 mps 739 mmHg 65%
    14:00 +23°C° 0.3 mm 1 mps 739 mmHg 60%
    15:00 +23°C° 0.3 mm 1 mps 739 mmHg 62%
    16:00 +23°C° 0.3 mm 1 mps 739 mmHg 65%
    17:00 +22°C° 0.3 mm 1 mps 738 mmHg 67%
    18:00 +19°C° 0.2 mm 0 mps 738 mmHg 73%
    19:00 +17°C° 0.2 mm 0 mps 738 mmHg 79%
    20:00 +15°C° 0.2 mm 0 mps 738 mmHg 85%
    21:00 +14°C° 0 mm 0 mps 738 mmHg 86%
    22:00 +14°C° 0 mm 0 mps 738 mmHg 86%
    23:00 +14°C° 0 mm 1 mps 738 mmHg 87%

    Tomorrow, 17 July, Wednesday

    Time Temperature Precipitation Wind Pressure Humidity
    00:00 +14°C° 0 mm 1 mps 738 mmHg 89%
    01:00 +13°C° 0 mm 1 mps 737 mmHg 90%
    02:00 +13°C° 0 mm 1 mps 737 mmHg 91%
    03:00 +13°C° 0.1 mm 1 mps 737 mmHg 91%
    04:00 +14°C° 0.1 mm 1 mps 737 mmHg 91%
    05:00 +14°C° 0.1 mm 1 mps 737 mmHg 91%
    06:00 +14°C° 0.5 mm 1 mps 737 mmHg 92%
    07:00 +15°C° 0.5 mm 1 mps 737 mmHg 92%
    08:00 +15°C° 0.5 mm 2 mps 737 mmHg 93%
    09:00 +16°C° 0.7 mm 2 mps 736 mmHg 89%
    10:00 +18°C° 0.7 mm 3 mps 736 mmHg 86%
    11:00 +19°C° 0.7 mm 3 mps 736 mmHg 82%
    12:00 +19°C° 1.2 mm 3 mps 736 mmHg 82%
    13:00 +19°C° 1.2 mm 3 mps 736 mmHg 81%
    14:00 +19°C° 1.2 mm 3 mps 736 mmHg 80%
    15:00 +19°C° 0.6 mm 3 mps 736 mmHg 80%
    16:00 +19°C° 0.6 mm 3 mps 736 mmHg 79%
    17:00 +19°C° 0.6 mm 3 mps 736 mmHg 79%
    18:00 +18°C° 0.1 mm 3 mps 736 mmHg 83%
    19:00 +16°C° 0.1 mm 2 mps 736 mmHg 86%
    20:00 +15°C° 0.1 mm 2 mps 736 mmHg 90%
    21:00 +14°C° 0.2 mm 2 mps 736 mmHg 91%
    22:00 +13°C° 0.2 mm 2 mps 736 mmHg 92%
    23:00 +13°C° 0.2 mm 2 mps 736 mmHg 94%

    Day after tomorrow, 18 July, Thursday

    Time Temperature Precipitation Wind Pressure Humidity
    00:00 +12°C° 0 mm 2 mps 736 mmHg 94%
    01:00 +12°C° 0 mm 2 mps 736 mmHg 95%
    02:00 +10°C° 0 mm 2 mps 736 mmHg 96%
    03:00 +10°C° 0 mm 2 mps 736 mmHg 96%
    04:00 +10°C° 0 mm 2 mps 736 mmHg 96%
    05:00 +10°C° 0 mm 2 mps 736 mmHg 96%
    06:00 +12°C° 0 mm 3 mps 736 mmHg 92%
    07:00 +13°C° 0 mm 3 mps 736 mmHg 89%
    08:00 +16°C° 0 mm 3 mps 736 mmHg 85%
    09:00 +17°C° 0.4 mm 4 mps 736 mmHg 83%
    10:00 +17°C° 0.4 mm 4 mps 736 mmHg 81%
    11:00 +18°C° 0.4 mm 4 mps 736 mmHg 79%
    12:00 +17°C° 0.5 mm 5 mps 736 mmHg 79%
    13:00 +17°C° 0.5 mm 5 mps 736 mmHg 80%
    14:00 +17°C° 0.5 mm 5 mps 736 mmHg 80%
    15:00 +16°C° 0.5 mm 5 mps 736 mmHg 84%
    16:00 +16°C° 0.5 mm 5 mps 736 mmHg 87%
    17:00 +15°C° 0.5 mm 4 mps 736 mmHg 91%
    18:00 +15°C° 0.2 mm 4 mps 736 mmHg 92%
    19:00 +14°C° 0.2 mm 4 mps 736 mmHg 93%
    20:00 +14°C° 0.2 mm 5 mps 736 mmHg 94%
    21:00 +14°C° 0.1 mm 5 mps 737 mmHg 94%
    22:00 +14°C° 0.1 mm 5 mps 737 mmHg 95%
    23:00 +14°C° 0.1 mm 5 mps 737 mmHg 95%

    19 July, Friday

    Time Temperature Precipitation Wind Pressure Humidity
    00:00 +14°C° 0 mm 5 mps 737 mmHg 96%
    01:00 +14°C° 0 mm 4 mps 737 mmHg 96%
    02:00 +13°C° 0 mm 4 mps 737 mmHg 97%
    03:00 +14°C° 0.1 mm 4 mps 738 mmHg 97%
    04:00 +14°C° 0.1 mm 4 mps 738 mmHg 96%
    05:00 +14°C° 0.1 mm 5 mps 738 mmHg 96%
    06:00 +14°C° 0.1 mm 5 mps 739 mmHg 94%
    07:00 +15°C° 0.1 mm 5 mps 739 mmHg 92%
    08:00 +15°C° 0.1 mm 5 mps 739 mmHg 90%
    09:00 +16°C° 0.1 mm 5 mps 739 mmHg 89%
    10:00 +16°C° 0.1 mm 5 mps 740 mmHg 88%
    11:00 +16°C° 0.1 mm 5 mps 740 mmHg 86%
    12:00 +17°C° 0.3 mm 5 mps 740 mmHg 83%
    13:00 +19°C° 0.3 mm 5 mps 740 mmHg 80%
    14:00 +21°C° 0.3 mm 5 mps 740 mmHg 76%
    15:00 +20°C° 0.5 mm 5 mps 741 mmHg 78%
    16:00 +20°C° 0.5 mm 5 mps 741 mmHg 79%
    17:00 +20°C° 0.5 mm 5 mps 741 mmHg 81%
    18:00 +19°C° 0.1 mm 4 mps 741 mmHg 84%
    19:00 +18°C° 0.1 mm 3 mps 741 mmHg 88%
    20:00 +16°C° 0.1 mm 3 mps 742 mmHg 91%
    21:00 +16°C° 0 mm 3 mps 742 mmHg 92%
    22:00 +14°C° 0 mm 3 mps 742 mmHg 93%
    23:00 +13°C° 0 mm 3 mps 743 mmHg 93%

    20 July, Saturday

    Time Temperature Precipitation Wind Pressure Humidity
    00:00 +13°C° 0 mm 3 mps 743 mmHg 94%
    01:00 +13°C° 0 mm 3 mps 743 mmHg 94%
    02:00 +12°C° 0 mm 3 mps 743 mmHg 94%
    03:00 +12°C° 0 mm 3 mps 743 mmHg 94%
    04:00 +12°C° 0 mm 3 mps 743 mmHg 94%
    05:00 +12°C° 0 mm 3 mps 744 mmHg 94%
    06:00 +14°C° 0 mm 3 mps 744 mmHg 89%
    07:00 +17°C° 0 mm 3 mps 744 mmHg 85%
    08:00 +18°C° 0 mm 3 mps 744 mmHg 80%
    09:00 +20°C° 0 mm 4 mps 744 mmHg 74%
    10:00 +21°C° 0 mm 4 mps 745 mmHg 68%
    11:00 +22°C° 0 mm 4 mps 745 mmHg 63%
    12:00 +23°C° 0 mm 4 mps 745 mmHg 62%
    13:00 +23°C° 0 mm 4 mps 745 mmHg 60%
    14:00 +23°C° 0 mm 4 mps 745 mmHg 59%
    15:00 +24°C° 0.1 mm 3 mps 745 mmHg 62%
    16:00 +24°C° 0.1 mm 3 mps 745 mmHg 65%
    17:00 +24°C° 0.1 mm 3 mps 745 mmHg 68%
    18:00 +21°C° 0 mm 2 mps 745 mmHg 73%
    19:00 +20°C° 0 mm 2 mps 745 mmHg 78%
    20:00 +19°C° 0 mm 1 mps 745 mmHg 83%
    21:00 +18°C° 0 mm 1 mps 745 mmHg 84%
    22:00 +16°C° 0 mm 1 mps 745 mmHg 85%
    23:00 +15°C° 0 mm 1 mps 745 mmHg 86%

    21 July, Sunday

    Time Temperature Precipitation Wind Pressure Humidity
    00:00 +15°C° 0 mm 1 mps 745 mmHg 86%
    01:00 +15°C° 0 mm 1 mps 745 mmHg 85%
    02:00 +15°C° 0 mm 1 mps 745 mmHg 85%
    03:00 +15°C° 0 mm 1 mps 745 mmHg 85%
    04:00 +15°C° 0 mm 1 mps 745 mmHg 86%
    05:00 +15°C° 0 mm 1 mps 745 mmHg 87%
    06:00 +16°C° 0 mm 1 mps 745 mmHg 82%
    07:00 +19°C° 0 mm 1 mps 745 mmHg 78%
    08:00 +21°C° 0 mm 1 mps 745 mmHg 73%
    09:00 +21°C° 0 mm 2 mps 746 mmHg 69%
    10:00 +23°C° 0 mm 2 mps 746 mmHg 65%
    11:00 +24°C° 0 mm 3 mps 746 mmHg 61%
    12:00 +25°C° 0 mm 3 mps 746 mmHg 61%
    13:00 +25°C° 0 mm 3 mps 745 mmHg 61%
    14:00 +25°C° 0 mm 3 mps 745 mmHg 61%
    15:00 +25°C° 0 mm 3 mps 745 mmHg 63%
    16:00 +25°C° 0 mm 3 mps 745 mmHg 66%
    17:00 +24°C° 0 mm 3 mps 745 mmHg 68%
    18:00 +23°C° 0 mm 2 mps 745 mmHg 74%
    19:00 +21°C° 0 mm 1 mps 745 mmHg 80%
    20:00 +19°C° 0 mm 1 mps 745 mmHg 86%
    21:00 +19°C° 0 mm 1 mps 745 mmHg 87%
    22:00 +18°C° 0 mm 1 mps 745 mmHg 88%
    23:00 +18°C° 0 mm 1 mps 745 mmHg 89%
    Show more